Flag for Turkey Weather past 2 weeks in Samsun, Turkey

Now
72 °F

Passing clouds.


Feels Like: 69 °F
Forecast: 67 / 87 °F
Wind: 1 mph from North

Location: Samsun / Carsamba

Current Time: Aug 4, 2015 at 1:00:32 AM

Latest Report: Aug 3, 2015 at 11:50 PM


Visibility: N/A

Pressure: 29.92 "Hg

Humidity: 88%

Dew point: 68 °F

Location of SamsunLocation

Historic Weather in Samsun — Graph

°F

Samsun temperature yesterday

Maximum temperature yesterday: 82 °F (at 9:50 AM)
Minimum temperature yesterday: 68 °F (at 4:50 AM)
Average temperature yesterday: 76 °F

Past Weeks' High & Low Weather Summary

 TemperatureHumidityPressure
High90 °F (Jul 29, 12:50 PM)100% (Jul 20, 3:50 AM)30.07 "Hg (Jul 20, 3:50 AM)
Low61 °F (Jul 20, 5:50 AM)43% (Jul 27, 3:50 PM)29.68 "Hg (Jul 28, 4:50 AM)
Average76 °F78%29.85 "Hg
* Reported Jul 19 10:50 PM — Aug 3 10:50 PM, Samsun, Weather by CustomWeather, © 2015

Note: Actual official high and low records may vary slightly from our data, if they occured in-between our weather recording intervals... More about our weather records

Advertising

Samsun weather history for previous 24 hours

 ConditionsComfort  
Time TempWeatherWind HumidityBarometerVisibility
10:50 PM
Mon, Aug 3
73 °FPassing clouds.5 mph89%29.92 "HgN/A
9:50 PM75 °FPassing clouds.No wind89%29.95 "HgN/A
8:50 PM75 °FPassing clouds.No wind89%29.95 "HgN/A
7:50 PM77 °FScattered clouds.1 mph83%29.95 "HgN/A
6:50 PM79 °FScattered clouds.3 mph79%29.95 "HgN/A
5:50 PM81 °FPassing clouds.6 mph74%29.95 "HgN/A
4:50 PM81 °FPassing clouds.8 mph74%29.95 "HgN/A
3:50 PM81 °FPassing clouds.8 mph74%29.95 "HgN/A
2:50 PM81 °FPassing clouds.8 mph70%29.95 "HgN/A
1:50 PM81 °FPassing clouds.9 mph70%29.95 "HgN/A
12:50 PM82 °FScattered clouds.8 mph66%29.95 "HgN/A
11:50 AM82 °FPassing clouds.8 mph62%29.95 "HgN/A
10:50 AM82 °FPassing clouds.8 mph55%29.95 "HgN/A
9:50 AM82 °FPassing clouds.3 mph55%29.95 "HgN/A
8:50 AM79 °FPassing clouds.5 mph70%29.95 "HgN/A
7:50 AM75 °FPassing clouds.3 mph83%29.95 "HgN/A
6:50 AM70 °FScattered clouds.5 mph94%29.98 "HgN/A
5:50 AM68 °FPartly cloudy.3 mph94%29.98 "HgN/A
4:50 AM68 °FPartly cloudy.2 mph94%29.98 "HgN/A
3:50 AM70 °FPassing clouds.5 mph94%29.98 "HgN/A
2:50 AM72 °FPassing clouds.3 mph94%29.98 "HgN/A
1:50 AM72 °FPassing clouds.2 mph88%30.01 "HgN/A
Weather by CustomWeather, © 2015

See weather overviewHow to use our weather pages